Temperature
15 16 16 16 14 12 13 14 15 16 16 17 17 16 15 14 15 15 14 14 14 14 14 14 14 14 14 15 15 15 15 14 14 14 14 14 14 14 14 14 14 14 14 14 14 14 14 14 14
15 15 16 15 12 12 13 14 15 16 16 17 16 16 14 14 14 14 14 14 14 14 14 14 14 14 14 14 14 14 14 14 14 14 14 14 14 14 14 14 14 14 14 14 14 14 14 14 14
15 15 15 12 12 13 14 14 15 16 17 17 15 15 14 13 14 14 14 14 13 13 13 14 14 14 14 14 14 14 14 14 14 14 14 14 14 14 14 14 14 14 14 14 14 14 13 13 14
15 15 14 12 13 13 14 14 15 15 16 16 15 13 13 13 13 14 14 14 13 13 13 13 14 14 14 14 14 14 14 14 14 14 14 14 14 14 14 14 14 14 14 13 13 13 13 13 13
14 14 12 12 13 13 13 15 15 14 15 15 14 12 12 13 13 13 14 13 13 13 13 13 13 13 13 13 13 13 13 13 13 13 13 13 13 13 13 13 13 13 13 13 13 13 13 13 13
14 12 11 11 13 13 13 15 15 14 14 14 14 12 12 12 13 13 13 13 13 13 13 13 13 13 13 13 13 13 13 13 13 13 13 13 13 13 13 13 13 13 13 13 13 12 12 12 13
12 10 11 12 12 13 14 14 14 13 13 14 14 12 11 12 12 12 13 13 13 13 12 12 12 12 13 13 13 13 13 13 13 13 13 12 12 12 12 12 13 13 13 12 12 12 12 12 12
13 10 11 11 12 13 13 14 14 14 13 14 14 12 11 12 12 12 12 12 12 12 12 12 12 12 12 12 12 12 12 12 12 12 12 12 12 12 12 12 12 12 12 12 12 12 12 12 12
12 9 10 11 12 12 13 13 13 13 13 13 13 13 13 12 12 12 12 12 12 12 12 12 12 12 12 12 12 12 12 12 12 12 12 12 12 12 12 12 12 12 12 12 12 12 12 12 12
11 9 11 12 12 12 12 12 12 12 11 11 11 12 12 12 12 12 11 11 11 11 11 11 11 11 11 11 11 11 11 11 12 11 11 11 11 11 12 12 12 12 12 12 12 11 11 11 11
10 9 10 11 12 12 12 11 12 11 10 10 11 11 11 11 11 11 11 11 11 11 11 11 11 11 11 11 11 11 11 11 11 11 11 11 11 11 11 11 11 11 11 11 11 11 11 11 11
10 10 11 11 11 11 11 11 10 10 11 11 11 12 11 11 11 11 11 11 11 11 11 11 11 11 11 11 11 11 11 11 11 11 11 11 11 11 11 11 11 11 11 11 11 11 11 10 10
9 9 10 11 11 11 11 10 9 9 10 11 11 11 10 10 10 10 10 10 10 10 10 10 10 10 11 11 11 11 10 10 10 10 10 10 11 11 11 10 10 11 11 11 10 10 10 10 10
9 9 10 10 10 10 10 9 9 9 10 10 10 10 10 9 9 10 9 10 10 10 10 10 10 10 10 10 10 10 10 10 10 10 10 10 10 10 10 10 10 10 10 10 10 10 10 10 10
10 8 8 9 9 9 9 8 8 9 9 9 9 9 9 9 9 9 9 9 9 9 9 9 9 9 10 10 10 10 10 10 10 10 10 10 10 10 10 10 10 10 10 9 9 9 9 9 9
8 7 7 8 9 9 9 8 8 9 8 8 8 8 8 8 8 9 9 9 9 9 9 9 9 9 9 9 9 9 9 9 9 9 9 9 9 10 10 9 9 9 9 9 9 9 9 9 9
7 6 7 8 8 8 8 7 7 8 8 7 7 7 7 8 8 8 8 8 8 8 8 8 8 8 8 8 9 8 9 9 9 9 9 9 9 9 9 9 9 9 9 8 8 8 8 8 8
6 6 7 7 7 7 7 6 6 7 7 6 6 6 6 7 7 7 8 8 8 8 8 8 8 7 8 8 8 8 8 8 8 8 8 9 9 9 9 9 8 8 8 8 8 8 8 7 7
7 6 6 7 7 7 6 6 6 6 6 5 5 6 6 6 7 7 7 7 7 7 7 7 7 7 7 7 7 7 7 8 8 8 8 8 8 8 8 8 8 8 8 8 7 7 7 7 7
6 6 6 6 7 6 6 5 5 5 5 5 5 5 6 6 6 6 6 6 6 7 6 6 6 6 6 7 6 7 7 7 7 7 7 7 7 7 8 8 8 7 7 7 7 7 7 6 6
6 6 6 6 6 6 5 5 5 5 5 5 5 5 5 6 6 6 6 6 6 6 6 6 6 6 6 6 6 6 6 6 6 6 7 7 7 7 7 7 7 7 7 7 6 6 6 6 6
5 6 6 6 5 4 5 5 5 4 4 4 4 4 5 5 5 5 5 6 6 6 6 6 6 6 6 5 5 6 6 6 6 6 6 6 6 6 6 6 6 6 6 6 6 6 6 6 6
5 5 5 5 4 3 3 4 4 4 4 4 4 4 5 5 5 5 5 5 6 5 5 5 5 5 5 5 5 5 5 5 5 5 5 5 6 6 6 6 6 6 6 6 5 5 5 5 5
5 4 4 2 2 3 3 3 4 3 4 4 4 4 4 4 5 5 5 5 5 5 5 5 5 5 5 4 4 4 5 5 5 5 5 5 5 5 5 5 5 5 5 5 5 5 5 5 5
4 3 3 3 3 3 3 3 4 4 3 3 3 4 4 4 4 4 4 4 4 4 4 4 4 4 4 4 4 4 4 4 4 4 4 5 4 5 5 5 5 5 5 5 5 5 4 4 4
3 3 3 4 3 3 3 3 3 3 3 3 4 4 4 3 4 3 4 4 4 4 4 4 4 4 4 4 4 3 3 3 3 3 4 4 4 4 4 4 4 4 4 4 4 4 4 4 4
3 3 3 2 2 2 2 2 3 3 2 2 2 3 3 3 3 3 3 3 3 3 3 3 3 3 3 3 3 3 3 3 3 3 3 3 3 3 3 3 3 4 4 3 3 3 3 3 4
3 3 1 2 2 2 2 2 3 3 2 2 1 1 2 2 2 3 3 3 3 3 3 3 3 3 3 2 2 2 2 2 2 2 2 2 2 3 3 3 3 3 3 3 3 3 3 3 3
2 2 1 1 1 2 2 3 3 2 2 1 1 1 2 2 2 2 2 2 2 2 2 2 2 2 2 2 2 2 2 2 2 2 2 2 2 2 2 2 2 2 2 2 2 2 2 2 2
2 2 1 1 1 0 1 2 2 1 1 1 1 1 1 1 1 2 2 2 2 2 2 2 2 1 1 1 1 1 1 1 1 1 1 1 1 2 2 2 2 2 2 2 1 2 2 2 2
Wind_Speed
9 6 2 4 5 3 3 4 3 1 1 1 2 5 7 5 3 4 2 4 7 8 9 11 11 11 11 12 13 13 13 13 13 14 14 14 14 14 15 15 15 16 16 17 17 18 18 19 19
5 2 4 4 4 2 4 4 4 5 4 2 3 4 5 4 3 5 3 4 8 10 10 10 11 12 12 13 13 13 13 13 13 14 14 14 14 14 15 15 15 16 16 16 17 17 18 18 18
4 2 4 4 4 7 5 4 7 4 0 2 3 4 4 3 2 2 3 7 8 8 10 11 12 13 13 13 13 13 13 13 13 13 14 14 14 14 15 15 15 16 16 16 16 17 17 17 18
3 4 3 2 5 5 6 4 4 2 1 2 4 4 3 2 1 2 6 9 9 7 9 11 13 13 13 13 13 13 13 13 13 13 13 14 14 15 15 15 15 15 16 16 16 16 17 17 17
3 3 3 2 5 4 4 4 2 2 1 1 3 4 2 3 2 6 8 8 9 6 8 11 13 13 13 13 13 12 12 12 13 13 14 14 14 15 15 14 15 15 15 15 16 16 16 17 17
3 3 3 5 5 4 3 3 1 1 1 1 4 4 2 1 4 6 7 7 7 7 8 9 12 13 13 13 12 13 12 12 12 13 14 14 14 14 14 14 14 15 15 15 15 16 16 16 17
4 3 4 5 4 4 3 1 1 1 1 1 3 5 2 1 2 6 6 7 7 8 7 8 8 11 12 12 12 13 12 12 12 13 13 14 14 14 14 14 14 14 14 14 15 15 15 15 15
4 3 2 3 5 5 2 0 1 2 2 0 3 6 4 4 3 6 7 7 7 7 6 6 7 8 10 11 12 13 13 13 13 13 14 14 14 14 13 13 13 13 14 14 14 15 15 15 15
3 2 5 5 5 4 1 0 2 1 3 2 2 2 3 7 7 8 6 5 5 5 5 5 6 7 8 10 11 12 12 12 13 13 13 13 12 12 12 12 13 13 13 14 13 14 14 14 13
3 4 7 4 3 3 1 0 1 1 2 1 3 4 4 7 9 9 7 6 5 4 3 4 4 5 7 9 10 10 10 11 11 11 12 12 12 11 11 12 12 12 12 12 12 13 13 12 11
3 5 4 2 2 1 1 1 1 3 2 3 4 4 5 6 7 7 6 6 5 5 4 3 4 5 6 6 8 8 8 9 10 11 11 12 11 11 10 9 9 10 10 10 10 10 10 10 10
2 3 3 3 1 1 1 1 1 1 3 2 5 8 7 7 7 7 6 5 4 4 3 3 3 4 5 6 7 7 7 7 8 9 10 10 9 8 8 7 7 8 8 9 9 9 10 10 11
3 3 2 2 1 2 1 2 1 3 3 2 6 7 7 6 5 5 5 4 4 3 3 3 4 4 4 5 5 6 6 7 8 9 9 10 8 7 7 6 7 7 8 8 8 8 8 8 9
2 2 2 2 2 2 2 3 1 4 2 4 5 5 5 5 5 4 4 4 3 3 3 2 4 4 4 4 4 5 7 8 8 8 8 9 9 9 7 6 6 6 7 8 8 8 7 7 7
1 1 3 3 3 2 2 4 6 5 3 3 4 5 5 4 4 5 5 5 4 3 3 2 3 3 4 4 4 5 7 8 8 8 8 9 9 10 9 7 6 6 8 8 8 8 8 6 6
2 1 2 4 3 2 4 7 6 4 5 5 4 4 5 4 3 3 4 4 3 3 3 2 2 2 3 4 4 4 6 7 7 8 9 8 9 10 10 7 6 7 8 7 6 5 5 4 4
1 2 4 4 3 2 4 7 5 3 5 6 5 4 5 4 2 2 4 4 4 4 3 3 3 3 3 3 4 4 5 6 7 7 8 8 9 9 9 8 7 9 7 6 5 4 4 4 4
4 4 4 5 3 2 5 8 7 4 5 6 5 5 5 5 5 4 4 4 4 4 4 3 3 3 3 3 3 2 2 3 5 6 7 8 8 9 9 8 8 8 6 4 4 4 3 4 4
4 4 5 5 3 3 7 10 9 5 4 5 6 5 6 6 5 3 4 4 4 3 4 4 4 3 3 3 3 3 2 2 3 4 7 8 8 8 8 7 7 7 5 5 5 4 5 3 3
3 3 4 4 3 2 6 9 8 6 6 6 7 7 7 5 3 4 4 5 5 5 5 5 5 4 4 3 3 2 2 2 2 3 5 6 7 8 8 7 7 6 5 5 5 5 3 3 3
4 5 5 4 4 2 3 6 5 4 3 3 4 5 6 6 6 5 5 5 5 5 6 5 5 5 4 3 2 2 2 1 1 1 2 4 7 7 7 7 7 7 6 6 6 6 5 5 2
6 5 4 3 1 3 1 5 6 4 3 5 6 5 5 4 4 4 4 5 6 7 6 6 6 5 5 5 5 5 4 3 2 2 2 3 6 7 7 7 7 7 6 6 6 5 4 6 5
4 2 2 2 3 3 2 4 7 2 5 7 7 6 6 5 5 5 5 6 6 5 5 5 5 5 5 5 6 6 4 3 2 1 2 2 3 5 6 7 6 6 6 7 6 5 4 4 5
2 3 4 3 2 4 6 5 7 5 7 6 5 5 5 4 4 4 3 2 2 3 4 4 5 5 5 6 6 6 5 4 3 3 3 3 2 3 4 5 5 5 5 7 7 6 6 5 5
3 4 2 3 2 7 3 5 8 6 6 6 5 5 4 4 3 3 2 2 2 3 4 5 6 6 5 6 6 6 6 6 6 5 5 4 3 3 3 4 4 4 5 6 7 6 7 6 6
4 6 5 5 5 5 3 7 7 4 4 3 2 2 1 2 3 4 4 3 3 3 3 5 6 5 5 6 5 5 5 4 4 4 4 5 4 4 5 5 4 5 5 5 6 5 6 6 6
5 4 4 4 2 4 6 6 6 3 2 1 1 1 1 2 3 3 3 3 3 3 4 5 5 5 5 5 5 5 5 5 5 4 4 4 3 3 5 5 5 4 5 5 5 5 6 6 6
4 5 4 4 3 5 6 6 5 5 4 3 3 3 3 3 2 2 2 2 2 3 3 3 4 5 4 4 4 4 4 5 5 5 5 5 4 4 4 4 5 5 5 5 5 5 5 6 5
4 4 4 4 4 5 5 7 4 6 5 5 5 4 3 3 3 3 3 2 2 2 2 1 2 3 3 3 4 4 4 4 4 5 6 5 5 4 4 5 6 6 6 5 5 6 6 7 6
6 7 7 5 5 5 4 8 3 3 3 3 4 4 3 3 2 2 2 2 2 2 2 2 2 3 3 3 3 4 4 4 4 5 5 5 5 5 5 5 6 6 6 6 6 6 7 8 8
Wind_Direction
333 339 57 62 65 62 229 245 224 218 232 216 101 100 113 114 129 149 156 127 122 136 143 142 135 130 124 116 114 112 107 105 104 105 103 100 97 95 92 91 90 90 92 93 94 96 97 94 92
332 357 56 69 116 185 252 240 222 225 194 150 76 89 92 91 81 108 112 129 128 135 137 138 133 130 124 120 113 112 111 108 105 105 105 103 101 98 95 93 91 91 91 91 93 96 98 97 96
334 49 87 95 155 193 210 220 216 230 184 132 87 59 97 117 115 141 161 138 122 125 130 137 131 129 127 123 118 111 113 110 108 106 107 105 102 100 97 94 93 90 90 91 92 95 98 99 98
49 53 64 115 208 216 201 219 213 196 345 55 115 80 63 16 152 157 137 127 122 118 126 136 134 128 127 126 123 119 113 114 112 109 108 107 105 102 99 97 95 93 92 91 93 97 98 99 99
58 87 104 212 228 228 220 240 216 172 189 122 121 118 93 342 70 114 120 121 126 118 121 134 135 132 128 126 125 121 114 113 116 113 110 107 106 105 102 99 99 97 95 93 94 97 98 98 98
61 79 143 213 225 237 248 259 170 164 170 119 118 122 150 353 92 117 114 113 113 114 115 125 137 135 132 129 125 122 119 113 114 116 113 110 109 108 105 102 101 100 99 97 95 95 97 98 96
114 119 185 204 212 235 244 278 146 179 180 205 142 127 158 241 111 120 108 104 103 104 102 107 118 131 134 132 128 124 120 116 111 114 114 112 109 107 107 105 104 103 103 100 98 97 96 97 97
127 120 200 219 205 224 242 271 182 165 218 329 116 143 180 201 149 111 100 100 101 98 96 97 102 117 126 131 128 123 120 115 111 109 110 109 106 105 105 106 106 105 104 102 99 99 95 94 95
96 117 212 218 205 218 258 16 329 44 102 47 48 132 178 143 129 113 103 95 101 98 98 98 98 106 119 124 125 121 118 115 110 105 106 102 99 99 99 102 106 108 107 102 99 99 94 90 92
106 187 219 223 205 201 260 248 257 86 70 48 40 40 89 126 131 133 137 141 142 137 118 98 103 109 118 124 122 118 115 111 106 105 104 104 103 102 100 97 102 106 106 104 100 97 92 84 86
150 198 227 259 237 221 242 300 312 147 190 204 189 154 132 131 136 144 151 154 158 155 137 120 106 112 118 120 122 118 117 114 109 110 109 111 107 103 98 92 92 96 98 96 97 91 88 87 85
160 238 223 248 247 235 227 243 345 206 224 200 163 149 143 147 154 160 162 160 153 150 150 141 119 113 122 131 132 130 127 124 121 122 120 117 114 109 104 99 97 96 100 97 93 93 94 92 89
205 236 233 236 249 243 275 264 227 258 263 127 124 132 144 153 159 155 149 143 140 148 154 157 139 134 128 132 138 134 135 136 135 132 131 129 128 127 118 112 108 106 108 106 101 100 99 94 91
208 238 253 257 245 249 218 275 226 250 217 144 138 150 157 160 164 154 144 148 152 154 153 162 150 147 139 134 140 141 145 145 142 140 141 139 139 138 131 121 117 114 115 115 112 111 105 97 94
88 8 313 251 222 226 151 267 240 233 182 168 168 165 160 164 156 169 174 169 167 169 153 147 143 130 143 145 144 144 149 148 146 148 147 145 144 144 138 132 128 126 122 118 113 108 103 98 94
61 81 274 265 201 198 167 250 250 223 191 198 191 179 175 184 180 184 175 165 159 153 151 149 131 122 134 141 141 145 152 150 150 151 149 147 147 148 140 137 137 132 125 120 120 118 110 104 97
52 220 240 273 213 183 195 246 260 231 194 204 203 196 191 198 211 205 185 171 163 159 159 162 147 146 143 141 141 142 150 149 151 150 147 147 144 148 144 140 139 135 127 122 127 122 125 123 110
218 222 235 240 242 198 226 250 272 250 202 210 211 207 203 208 221 217 194 178 169 164 163 168 156 149 137 127 126 128 126 142 146 149 148 147 148 146 146 142 142 138 135 129 129 130 117 126 123
196 208 241 250 255 224 235 253 263 257 231 221 221 218 217 223 225 208 194 179 165 162 168 174 165 158 149 154 163 165 178 176 162 150 151 150 150 149 145 149 148 148 152 152 143 135 131 124 120
224 236 264 290 316 252 255 262 262 246 230 224 222 225 223 223 217 209 198 183 180 182 184 180 177 170 166 171 178 176 171 181 178 155 148 155 155 155 155 157 160 159 154 151 150 141 139 149 149
232 216 235 263 325 324 305 290 258 262 238 235 233 230 225 217 212 214 211 204 191 193 194 190 185 176 168 149 134 123 107 83 127 178 180 170 163 162 164 161 163 163 162 169 171 164 154 165 184
241 233 229 249 287 277 243 276 268 248 265 250 250 243 235 227 216 214 220 222 210 205 196 190 185 179 170 158 158 157 171 190 214 205 205 188 171 169 166 166 170 171 169 176 182 178 169 165 176
221 237 224 221 195 278 258 234 276 238 251 254 248 241 238 221 211 215 225 226 222 205 194 192 185 184 176 172 170 170 180 192 181 185 180 194 183 177 173 172 174 179 180 182 183 180 178 179 180
159 55 46 51 97 258 226 206 269 224 222 243 248 239 235 219 216 227 233 239 231 201 189 186 187 190 184 180 178 179 181 176 175 196 191 201 202 193 182 184 182 183 186 188 188 186 186 190 188
87 93 27 346 304 251 223 215 248 235 218 222 239 237 232 216 213 224 229 243 242 214 206 196 193 196 192 187 189 190 188 186 192 197 197 196 207 212 209 199 197 193 195 198 189 188 195 192 191
192 158 168 210 234 276 269 236 250 234 236 231 227 223 215 218 224 227 229 229 233 229 219 209 202 205 197 195 198 195 187 192 202 206 200 202 211 216 205 202 202 203 197 203 196 191 198 194 196
165 193 177 154 240 266 260 273 289 254 271 287 319 348 249 243 238 238 242 234 230 236 230 213 202 203 201 201 202 199 191 194 202 209 207 208 213 212 206 204 204 203 200 204 199 200 204 199 201
174 159 123 154 197 255 275 263 243 235 246 265 265 265 278 279 269 266 261 257 256 250 250 213 202 206 206 205 205 207 200 198 201 204 208 210 212 207 208 210 207 206 203 204 203 205 205 202 206
165 175 167 168 188 201 261 264 231 211 212 223 235 245 256 261 259 264 269 274 281 294 289 235 205 205 207 213 215 207 209 206 205 212 214 211 208 204 210 213 213 211 206 204 206 212 206 208 209
196 193 173 185 227 211 236 268 277 220 227 229 248 261 266 258 259 267 283 304 306 288 283 268 233 219 221 217 215 213 215 212 215 222 221 213 211 207 208 209 216 218 214 208 208 213 210 208 210
Height
1513 1514 1515 1517 1522 1531 1529 1523 1517 1515 1515 1514 1514 1514 1516 1520 1523 1529 1527 1526 1528 1530 1532 1535 1536 1537 1538 1539 1540 1541 1542 1542 1543 1543 1544 1544 1544 1545 1545 1545 1545 1545 1545 1545 1545 1546 1546 1547 1548
1513 1514 1517 1517 1525 1534 1529 1520 1517 1513 1513 1513 1514 1515 1516 1519 1521 1523 1524 1526 1528 1530 1532 1534 1536 1537 1538 1539 1540 1541 1542 1543 1544 1544 1544 1545 1545 1546 1546 1546 1546 1546 1546 1547 1547 1547 1548 1548 1549
1512 1513 1516 1518 1525 1527 1523 1516 1514 1511 1512 1512 1514 1516 1517 1520 1521 1522 1523 1525 1528 1530 1532 1534 1535 1537 1538 1539 1540 1541 1543 1543 1544 1545 1545 1545 1546 1546 1546 1547 1547 1547 1548 1548 1548 1549 1549 1550 1550
1512 1514 1516 1521 1521 1518 1515 1513 1512 1511 1512 1512 1513 1517 1519 1521 1521 1522 1523 1525 1527 1529 1532 1533 1535 1536 1538 1539 1540 1541 1542 1543 1544 1545 1546 1546 1546 1547 1547 1548 1548 1548 1549 1549 1549 1550 1551 1551 1552
1512 1513 1518 1522 1518 1514 1512 1512 1511 1511 1512 1513 1514 1516 1519 1521 1521 1522 1523 1525 1527 1529 1531 1533 1535 1536 1537 1539 1540 1541 1542 1543 1544 1545 1546 1546 1547 1547 1548 1548 1549 1549 1550 1550 1551 1551 1552 1553 1553
1512 1513 1521 1522 1517 1513 1512 1511 1511 1511 1512 1513 1514 1516 1519 1520 1520 1521 1523 1524 1526 1528 1530 1533 1534 1536 1537 1538 1539 1540 1542 1543 1544 1545 1546 1546 1547 1548 1548 1549 1549 1550 1550 1551 1552 1552 1553 1554 1554
1512 1515 1518 1518 1517 1515 1512 1511 1511 1511 1512 1513 1513 1515 1517 1519 1520 1521 1523 1525 1526 1528 1530 1532 1534 1535 1536 1538 1539 1540 1541 1542 1543 1544 1545 1546 1547 1548 1549 1549 1550 1550 1551 1552 1552 1553 1554 1555 1556
1510 1514 1516 1517 1516 1513 1511 1511 1511 1511 1511 1513 1513 1514 1516 1517 1519 1521 1522 1524 1526 1527 1529 1531 1532 1534 1535 1537 1538 1539 1541 1542 1543 1543 1545 1546 1547 1548 1549 1549 1550 1551 1551 1552 1553 1554 1554 1555 1556
1510 1517 1517 1515 1514 1512 1510 1510 1510 1511 1511 1511 1512 1512 1514 1515 1517 1520 1521 1523 1525 1526 1528 1530 1531 1533 1534 1536 1537 1538 1540 1541 1542 1543 1544 1545 1546 1547 1548 1549 1550 1551 1551 1552 1553 1554 1555 1555 1557
1509 1516 1512 1510 1510 1510 1510 1510 1510 1510 1510 1511 1511 1511 1512 1514 1516 1517 1519 1521 1522 1524 1526 1528 1530 1531 1533 1534 1536 1537 1538 1540 1541 1542 1543 1544 1546 1547 1548 1549 1550 1550 1551 1552 1553 1554 1555 1556 1557
1508 1511 1509 1508 1509 1509 1509 1509 1509 1509 1510 1510 1509 1509 1511 1513 1514 1515 1517 1519 1521 1522 1524 1526 1528 1530 1531 1532 1534 1535 1537 1538 1540 1541 1542 1543 1544 1546 1547 1548 1549 1550 1551 1552 1553 1554 1555 1556 1557
1508 1507 1508 1508 1507 1508 1508 1508 1509 1508 1509 1509 1509 1509 1509 1511 1512 1513 1515 1517 1519 1521 1522 1524 1526 1527 1529 1530 1532 1533 1535 1536 1538 1540 1541 1542 1543 1544 1546 1547 1548 1549 1550 1551 1552 1553 1555 1556 1557
1507 1507 1506 1506 1506 1507 1507 1507 1508 1507 1508 1508 1507 1508 1508 1510 1511 1512 1514 1515 1517 1519 1520 1522 1524 1525 1526 1528 1530 1531 1533 1534 1536 1538 1539 1540 1541 1542 1544 1545 1547 1548 1549 1550 1551 1553 1554 1555 1556
1506 1506 1505 1505 1506 1506 1507 1507 1508 1505 1506 1506 1506 1506 1507 1508 1509 1510 1512 1513 1514 1516 1517 1519 1521 1523 1524 1525 1527 1528 1530 1532 1534 1535 1537 1538 1539 1540 1542 1543 1545 1546 1548 1549 1550 1551 1552 1554 1555
1505 1507 1506 1504 1504 1505 1507 1508 1506 1504 1505 1505 1505 1505 1506 1507 1507 1508 1509 1510 1512 1514 1515 1516 1518 1520 1521 1523 1524 1526 1528 1530 1531 1533 1534 1536 1537 1538 1539 1541 1543 1544 1546 1547 1548 1550 1551 1552 1554
1506 1510 1511 1505 1504 1504 1509 1507 1503 1503 1503 1503 1503 1503 1504 1505 1505 1506 1508 1509 1510 1511 1513 1514 1515 1517 1518 1520 1521 1523 1525 1527 1528 1530 1532 1533 1534 1536 1537 1539 1540 1542 1544 1545 1546 1547 1549 1550 1552
1511 1514 1511 1507 1503 1504 1506 1505 1501 1501 1501 1501 1502 1502 1502 1502 1503 1504 1505 1506 1507 1508 1510 1512 1513 1514 1515 1517 1519 1520 1522 1524 1525 1527 1528 1530 1531 1533 1534 1536 1537 1539 1541 1543 1544 1545 1547 1548 1550
1513 1513 1510 1507 1503 1504 1504 1503 1500 1499 1499 1500 1500 1500 1500 1499 1500 1501 1503 1504 1505 1506 1507 1509 1510 1511 1513 1514 1515 1517 1519 1520 1522 1523 1525 1526 1528 1530 1531 1532 1534 1536 1538 1540 1541 1543 1545 1546 1547
1507 1508 1508 1505 1502 1503 1502 1501 1499 1497 1498 1498 1497 1497 1497 1497 1498 1499 1500 1501 1502 1503 1504 1505 1506 1508 1509 1510 1511 1512 1514 1516 1517 1519 1521 1523 1524 1526 1527 1529 1531 1533 1535 1536 1538 1540 1542 1543 1545
1506 1508 1508 1505 1502 1502 1502 1500 1496 1495 1495 1494 1494 1494 1494 1494 1495 1496 1497 1498 1498 1499 1500 1501 1502 1504 1505 1506 1508 1509 1511 1512 1514 1516 1518 1519 1521 1523 1524 1525 1527 1529 1531 1533 1535 1536 1538 1540 1542
1505 1506 1506 1506 1503 1503 1503 1500 1496 1492 1492 1492 1492 1491 1491 1491 1491 1492 1493 1493 1494 1495 1496 1498 1499 1501 1502 1503 1505 1506 1508 1509 1511 1512 1513 1516 1517 1519 1521 1522 1524 1526 1528 1529 1531 1533 1534 1536 1538
1505 1502 1503 1504 1508 1510 1507 1506 1494 1492 1491 1489 1488 1488 1487 1487 1488 1488 1489 1490 1490 1491 1493 1494 1496 1497 1498 1500 1501 1502 1502 1504 1505 1507 1510 1512 1513 1515 1517 1518 1520 1522 1523 1525 1527 1529 1531 1533 1534
1502 1501 1503 1505 1508 1512 1509 1509 1495 1491 1490 1486 1484 1484 1483 1484 1485 1485 1486 1486 1487 1488 1489 1490 1492 1493 1495 1496 1497 1498 1500 1501 1502 1504 1506 1508 1509 1511 1512 1515 1517 1518 1520 1521 1523 1525 1527 1529 1531
1501 1503 1506 1510 1513 1512 1506 1508 1494 1490 1484 1482 1480 1480 1480 1481 1481 1482 1483 1484 1484 1485 1486 1487 1488 1489 1491 1492 1493 1494 1495 1497 1498 1500 1501 1503 1504 1506 1508 1511 1512 1514 1515 1517 1519 1520 1523 1525 1527
1503 1509 1515 1514 1517 1508 1501 1501 1490 1482 1479 1478 1478 1477 1477 1478 1478 1479 1479 1480 1480 1481 1482 1483 1484 1485 1486 1487 1489 1490 1491 1493 1494 1495 1497 1498 1500 1501 1503 1506 1507 1509 1511 1512 1514 1516 1518 1520 1522
1503 1505 1512 1514 1515 1507 1501 1497 1484 1478 1477 1476 1476 1475 1475 1475 1476 1476 1477 1477 1478 1478 1479 1479 1480 1481 1482 1483 1484 1485 1487 1488 1490 1491 1493 1494 1495 1497 1498 1500 1502 1504 1506 1507 1509 1511 1513 1515 1517
1501 1505 1505 1513 1515 1512 1502 1493 1482 1476 1475 1474 1474 1473 1473 1473 1473 1474 1474 1475 1475 1475 1476 1476 1476 1477 1478 1479 1480 1481 1482 1484 1486 1487 1489 1490 1491 1492 1494 1495 1497 1499 1501 1503 1504 1505 1508 1510 1512
1498 1501 1509 1510 1512 1508 1499 1494 1482 1475 1474 1474 1473 1472 1472 1472 1472 1472 1472 1472 1472 1472 1472 1472 1473 1473 1474 1475 1476 1477 1478 1479 1482 1483 1484 1485 1486 1487 1489 1490 1491 1494 1495 1497 1498 1500 1502 1505 1506
1499 1501 1503 1507 1508 1508 1503 1487 1473 1471 1471 1472 1471 1470 1471 1470 1470 1469 1469 1469 1469 1469 1469 1469 1469 1470 1470 1471 1472 1473 1474 1475 1477 1478 1479 1480 1481 1482 1483 1484 1486 1487 1489 1492 1492 1494 1496 1499 1501
1494 1495 1499 1503 1505 1506 1501 1486 1470 1469 1469 1469 1469 1469 1469 1469 1468 1467 1467 1467 1466 1466 1465 1465 1466 1466 1467 1467 1468 1469 1469 1471 1472 1473 1474 1475 1476 1477 1478 1479 1480 1481 1483 1485 1487 1488 1490 1492 1494